Time,TemperatureF,DewpointF,PressureIn,WindDirection,WindDirectionDegrees,WindSpeedMPH,WindSpeedGustMPH,Humidity,HourlyPrecipIn,Conditions,Clouds,dailyrainin,SolarRadiationWatts/m^2,SoftwareType,DateUTC
2013-10-14 00:01:00,44.0,23.0,-100.00,NE,36,4.0,9.0,44,0.00,,,0.00,0.000000,,2013-10-14 07:01:00,
2013-10-14 00:11:00,44.0,23.0,-100.00,NE,36,4.0,9.0,44,0.00,,,0.00,0.000000,,2013-10-14 07:11:00,
2013-10-14 00:22:00,44.0,23.0,-100.00,NE,36,4.0,9.0,44,0.00,,,0.00,0.000000,,2013-10-14 07:22:00,
2013-10-14 00:52:00,44.0,21.0,-100.00,West,270,5.0,9.0,40,0.00,,,0.00,0.000000,,2013-10-14 07:52:00,
2013-10-14 01:02:00,44.0,21.0,-100.00,West,270,5.0,9.0,40,0.00,,,0.00,0.000000,,2013-10-14 08:02:00,
2013-10-14 01:12:00,44.0,21.0,-100.00,West,270,5.0,9.0,40,0.00,,,0.00,0.000000,,2013-10-14 08:12:00,
2013-10-14 01:21:00,44.0,21.0,-100.00,West,270,5.0,9.0,40,0.00,,,0.00,0.000000,,2013-10-14 08:21:00,
2013-10-14 01:52:00,44.0,22.0,-100.00,ENE,78,5.0,9.0,41,0.00,,,0.00,0.000000,,2013-10-14 08:52:00,
2013-10-14 02:01:00,44.0,22.0,-100.00,ENE,78,5.0,9.0,41,0.00,,,0.00,0.000000,,2013-10-14 09:01:00,
2013-10-14 02:11:00,44.0,22.0,-100.00,ENE,78,5.0,9.0,41,0.00,,,0.00,0.000000,,2013-10-14 09:11:00,
2013-10-14 02:22:00,44.0,22.0,-100.00,ENE,78,5.0,9.0,41,0.00,,,0.00,0.000000,,2013-10-14 09:22:00,
2013-10-14 03:12:00,45.0,23.0,-100.00,ENE,67,4.0,12.0,42,0.00,,,0.00,0.000000,,2013-10-14 10:12:00,
2013-10-14 03:22:00,45.0,23.0,-100.00,ENE,67,4.0,12.0,42,0.00,,,0.00,0.000000,,2013-10-14 10:22:00,
2013-10-14 03:53:00,44.0,23.0,-100.00,NE,50,3.0,11.0,43,0.00,,,0.00,0.000000,,2013-10-14 10:53:00,
2013-10-14 04:02:00,44.0,23.0,-100.00,NE,50,3.0,11.0,43,0.00,,,0.00,0.000000,,2013-10-14 11:02:00,
2013-10-14 04:11:00,44.0,23.0,-100.00,NE,50,3.0,11.0,43,0.00,,,0.00,0.000000,,2013-10-14 11:11:00,
2013-10-14 04:22:00,44.0,23.0,-100.00,NE,50,3.0,11.0,43,0.00,,,0.00,0.000000,,2013-10-14 11:22:00,
2013-10-14 04:52:00,44.0,25.0,-100.00,East,82,5.0,8.0,46,0.00,,,0.00,0.000000,,2013-10-14 11:52:00,
2013-10-14 05:02:00,44.0,25.0,-100.00,East,82,5.0,8.0,46,0.00,,,0.00,0.000000,,2013-10-14 12:02:00,
2013-10-14 05:12:00,44.0,25.0,-100.00,East,82,5.0,8.0,46,0.00,,,0.00,0.000000,,2013-10-14 12:12:00,
2013-10-14 05:22:00,44.0,25.0,-100.00,East,82,5.0,8.0,46,0.00,,,0.00,0.000000,,2013-10-14 12:22:00,
2013-10-14 05:52:00,43.0,24.0,-100.00,ENE,74,10.0,11.0,46,0.00,,,0.00,0.000000,,2013-10-14 12:52:00,
2013-10-14 06:02:00,43.0,24.0,-100.00,ENE,74,10.0,11.0,46,0.00,,,0.00,0.000000,,2013-10-14 13:02:00,
2013-10-14 06:11:00,43.0,24.0,-100.00,ENE,74,10.0,11.0,46,0.00,,,0.00,0.000000,,2013-10-14 13:11:00,
2013-10-14 06:21:00,43.0,24.0,-100.00,ENE,74,10.0,11.0,46,0.00,,,0.00,0.000000,,2013-10-14 13:21:00,
2013-10-14 06:52:00,42.0,25.0,-100.00,ENE,72,4.0,17.0,50,0.00,,,0.00,0.000000,,2013-10-14 13:52:00,
2013-10-14 07:02:00,42.0,25.0,-100.00,ENE,72,4.0,17.0,50,0.00,,,0.00,0.000000,,2013-10-14 14:02:00,
2013-10-14 07:11:00,42.0,25.0,-100.00,ENE,72,4.0,17.0,50,0.00,,,0.00,0.000000,,2013-10-14 14:11:00,
2013-10-14 07:22:00,42.0,25.0,-100.00,ENE,72,4.0,17.0,50,0.00,,,0.00,0.000000,,2013-10-14 14:22:00,
2013-10-14 07:52:00,41.0,21.0,-100.00,NNE,32,1.0,13.0,44,0.00,,,0.00,0.000000,,2013-10-14 14:52:00,
2013-10-14 08:01:00,41.0,21.0,-100.00,NNE,32,1.0,13.0,44,0.00,,,0.00,0.000000,,2013-10-14 15:01:00,
2013-10-14 08:11:00,41.0,21.0,-100.00,NNE,32,1.0,13.0,44,0.00,,,0.00,0.000000,,2013-10-14 15:11:00,
2013-10-14 08:21:00,41.0,21.0,-100.00,NNE,32,1.0,13.0,44,0.00,,,0.00,0.000000,,2013-10-14 15:21:00,
2013-10-14 08:54:00,43.0,17.0,-100.00,East,95,4.0,10.0,35,0.00,,,0.00,17.000000,,2013-10-14 15:54:00,
2013-10-14 09:03:00,43.0,17.0,-100.00,East,95,4.0,10.0,35,0.00,,,0.00,17.000000,,2013-10-14 16:03:00,
2013-10-14 09:13:00,43.0,17.0,-100.00,East,95,4.0,10.0,35,0.00,,,0.00,17.000000,,2013-10-14 16:13:00,
2013-10-14 09:23:00,43.0,17.0,-100.00,East,95,4.0,10.0,35,0.00,,,0.00,17.000000,,2013-10-14 16:23:00,
2013-10-14 09:53:00,51.0,22.0,-100.00,East,83,6.0,6.0,32,0.00,,,0.00,222.000000,,2013-10-14 16:53:00,
2013-10-14 10:02:00,51.0,22.0,-100.00,East,83,6.0,6.0,32,0.00,,,0.00,222.000000,,2013-10-14 17:02:00,
2013-10-14 10:11:00,51.0,22.0,-100.00,East,83,6.0,6.0,32,0.00,,,0.00,222.000000,,2013-10-14 17:11:00,
2013-10-14 10:22:00,51.0,22.0,-100.00,East,83,6.0,6.0,32,0.00,,,0.00,222.000000,,2013-10-14 17:22:00,
2013-10-14 10:52:00,53.0,24.0,-100.00,East,93,7.0,12.0,32,0.00,,,0.00,448.000000,,2013-10-14 17:52:00,
2013-10-14 11:01:00,53.0,24.0,-100.00,East,93,7.0,12.0,32,0.00,,,0.00,448.000000,,2013-10-14 18:01:00,
2013-10-14 11:12:00,53.0,24.0,-100.00,East,93,7.0,12.0,32,0.00,,,0.00,448.000000,,2013-10-14 18:12:00,
2013-10-14 11:22:00,53.0,24.0,-100.00,East,93,7.0,12.0,32,0.00,,,0.00,448.000000,,2013-10-14 18:22:00,
2013-10-14 11:52:00,54.0,23.0,-100.00,East,96,12.0,13.0,30,0.00,,,0.00,694.000000,,2013-10-14 18:52:00,
2013-10-14 12:02:00,54.0,23.0,-100.00,East,96,12.0,13.0,30,0.00,,,0.00,694.000000,,2013-10-14 19:02:00,
2013-10-14 12:11:00,54.0,23.0,-100.00,East,96,12.0,13.0,30,0.00,,,0.00,694.000000,,2013-10-14 19:11:00,
2013-10-14 12:21:00,54.0,23.0,-100.00,East,96,12.0,13.0,30,0.00,,,0.00,694.000000,,2013-10-14 19:21:00,
2013-10-14 12:52:00,52.0,21.0,-100.00,ESE,106,12.0,22.0,29,0.00,,,0.00,879.000000,,2013-10-14 19:52:00,
2013-10-14 13:02:00,52.0,21.0,-100.00,ESE,106,12.0,22.0,29,0.00,,,0.00,879.000000,,2013-10-14 20:02:00,
2013-10-14 13:11:00,52.0,21.0,-100.00,ESE,106,12.0,22.0,29,0.00,,,0.00,879.000000,,2013-10-14 20:11:00,
2013-10-14 13:22:00,52.0,21.0,-100.00,ESE,106,12.0,22.0,29,0.00,,,0.00,879.000000,,2013-10-14 20:22:00,
2013-10-14 13:52:00,54.0,20.0,-100.00,ESE,104,11.0,22.0,26,0.00,,,0.00,977.000000,,2013-10-14 20:52:00,
2013-10-14 14:02:00,54.0,20.0,-100.00,ESE,104,11.0,22.0,26,0.00,,,0.00,977.000000,,2013-10-14 21:02:00,
2013-10-14 14:12:00,54.0,20.0,-100.00,ESE,104,11.0,22.0,26,0.00,,,0.00,977.000000,,2013-10-14 21:12:00,
2013-10-14 14:21:00,54.0,20.0,-100.00,ESE,104,11.0,22.0,26,0.00,,,0.00,977.000000,,2013-10-14 21:21:00,
2013-10-14 14:54:00,55.0,22.0,-100.00,East,95,13.0,18.0,27,0.00,,,0.00,991.000000,,2013-10-14 21:54:00,
2013-10-14 15:04:00,55.0,22.0,-100.00,East,95,13.0,18.0,27,0.00,,,0.00,991.000000,,2013-10-14 22:04:00,
2013-10-14 15:13:00,55.0,22.0,-100.00,East,95,13.0,18.0,27,0.00,,,0.00,991.000000,,2013-10-14 22:13:00,
2013-10-14 15:24:00,55.0,22.0,-100.00,East,95,13.0,18.0,27,0.00,,,0.00,991.000000,,2013-10-14 22:24:00,
2013-10-14 15:54:00,54.0,20.0,-100.00,ESE,103,9.0,20.0,26,0.00,,,0.00,922.000000,,2013-10-14 22:54:00,
2013-10-14 16:03:00,54.0,20.0,-100.00,ESE,103,9.0,20.0,26,0.00,,,0.00,922.000000,,2013-10-14 23:03:00,
2013-10-14 16:12:00,54.0,20.0,-100.00,ESE,103,9.0,20.0,26,0.00,,,0.00,922.000000,,2013-10-14 23:12:00,
2013-10-14 16:21:00,54.0,20.0,-100.00,ESE,103,9.0,20.0,26,0.00,,,0.00,922.000000,,2013-10-14 23:21:00,
2013-10-14 16:52:00,56.0,23.0,-100.00,East,90,8.0,19.0,27,0.00,,,0.00,776.000000,,2013-10-14 23:52:00,
2013-10-14 17:02:00,56.0,23.0,-100.00,East,90,8.0,19.0,27,0.00,,,0.00,776.000000,,2013-10-15 00:02:00,
2013-10-14 17:11:00,56.0,23.0,-100.00,East,90,8.0,19.0,27,0.00,,,0.00,776.000000,,2013-10-15 00:11:00,
2013-10-14 17:21:00,56.0,23.0,-100.00,East,90,8.0,19.0,27,0.00,,,0.00,776.000000,,2013-10-15 00:21:00,
2013-10-14 17:52:00,55.0,24.0,-100.00,East,93,11.0,17.0,30,0.00,,,0.00,566.000000,,2013-10-15 00:52:00,
2013-10-14 18:02:00,55.0,24.0,-100.00,East,93,11.0,17.0,30,0.00,,,0.00,566.000000,,2013-10-15 01:02:00,
2013-10-14 18:11:00,55.0,24.0,-100.00,East,93,11.0,17.0,30,0.00,,,0.00,566.000000,,2013-10-15 01:11:00,
2013-10-14 18:21:00,55.0,24.0,-100.00,East,93,11.0,17.0,30,0.00,,,0.00,566.000000,,2013-10-15 01:21:00,
2013-10-14 18:52:00,51.0,22.0,-100.00,East,87,11.0,15.0,32,0.00,,,0.00,315.000000,,2013-10-15 01:52:00,
2013-10-14 19:02:00,51.0,22.0,-100.00,East,87,11.0,15.0,32,0.00,,,0.00,315.000000,,2013-10-15 02:02:00,
2013-10-14 19:12:00,51.0,22.0,-100.00,East,87,11.0,15.0,32,0.00,,,0.00,315.000000,,2013-10-15 02:12:00,
2013-10-14 19:21:00,51.0,22.0,-100.00,East,87,11.0,15.0,32,0.00,,,0.00,315.000000,,2013-10-15 02:21:00,
2013-10-14 19:52:00,48.0,21.0,-100.00,ENE,76,11.0,13.0,34,0.00,,,0.00,44.000000,,2013-10-15 02:52:00,
2013-10-14 20:02:00,48.0,21.0,-100.00,ENE,76,11.0,13.0,34,0.00,,,0.00,44.000000,,2013-10-15 03:02:00,
2013-10-14 20:12:00,48.0,21.0,-100.00,ENE,76,11.0,13.0,34,0.00,,,0.00,44.000000,,2013-10-15 03:12:00,
2013-10-14 20:22:00,48.0,21.0,-100.00,ENE,76,11.0,13.0,34,0.00,,,0.00,44.000000,,2013-10-15 03:22:00,
2013-10-14 21:24:00,49.0,23.0,-100.00,ENE,75,10.0,15.0,35,-99.99,,,0.00,0.000000,,2013-10-15 04:24:00,
2013-10-14 21:54:00,48.0,22.0,-100.00,ENE,77,10.0,14.0,35,0.00,,,0.00,0.000000,,2013-10-15 04:54:00,
2013-10-14 22:03:00,48.0,22.0,-100.00,ENE,77,10.0,14.0,35,0.00,,,0.00,0.000000,,2013-10-15 05:03:00,
2013-10-14 22:22:00,48.0,22.0,-100.00,ENE,77,10.0,14.0,35,0.00,,,0.00,0.000000,,2013-10-15 05:22:00,
2013-10-14 22:53:00,48.0,21.0,-100.00,ENE,72,8.0,13.0,34,0.00,,,0.00,0.000000,,2013-10-15 05:53:00,
2013-10-14 23:02:00,48.0,21.0,-100.00,ENE,72,8.0,13.0,34,0.00,,,0.00,0.000000,,2013-10-15 06:02:00,
2013-10-14 23:52:00,47.0,20.0,-100.00,East,95,5.0,14.0,34,0.00,,,0.00,0.000000,,2013-10-15 06:52:00,